QPF
0.00 0.00 0.00 0.00 0.00 0.00 0.00 0.00 0.00 0.00 0.01 0.01 0.03 0.04 0.05 0.07 0.06 0.04 0.04 0.04 0.03 0.03 0.05 0.07 0.08 0.05 0.04 0.03 0.02 0.02 0.03 0.03 0.03 0.05 0.07 0.10 0.12 0.13 0.13 0.15 0.17 0.17 0.16 0.15
0.00 0.00 0.00 0.00 0.00 0.00 0.00 0.00 0.00 0.00 0.01 0.02 0.07 0.07 0.05 0.07 0.07 0.05 0.05 0.04 0.03 0.03 0.05 0.07 0.07 0.07 0.05 0.04 0.03 0.03 0.03 0.02 0.02 0.03 0.05 0.08 0.10 0.12 0.14 0.16 0.18 0.16 0.11 0.11
0.00 0.00 0.00 0.00 0.00 0.00 0.00 0.00 0.00 0.00 0.01 0.02 0.05 0.04 0.06 0.10 0.10 0.09 0.05 0.03 0.04 0.04 0.04 0.04 0.04 0.04 0.03 0.03 0.03 0.02 0.02 0.02 0.01 0.02 0.02 0.04 0.06 0.08 0.09 0.10 0.12 0.12 0.10 0.10
0.00 0.00 0.00 0.00 0.00 0.00 0.00 0.00 0.00 0.00 0.01 0.02 0.02 0.03 0.04 0.05 0.06 0.03 0.04 0.05 0.10 0.13 0.07 0.03 0.01 0.02 0.02 0.02 0.02 0.02 0.01 0.02 0.02 0.02 0.02 0.03 0.03 0.03 0.03 0.05 0.07 0.10 0.11 0.10
0.00 0.00 0.00 0.01 0.01 0.00 0.00 0.01 0.01 0.01 0.01 0.01 0.02 0.02 0.04 0.03 0.04 0.03 0.04 0.04 0.07 0.10 0.11 0.06 0.03 0.02 0.02 0.03 0.03 0.02 0.01 0.02 0.03 0.04 0.04 0.04 0.04 0.04 0.03 0.04 0.06 0.10 0.14 0.15
0.00 0.00 0.00 0.01 0.01 0.01 0.01 0.03 0.02 0.02 0.02 0.01 0.01 0.02 0.05 0.07 0.07 0.06 0.05 0.04 0.04 0.04 0.04 0.06 0.05 0.03 0.03 0.03 0.02 0.01 0.01 0.01 0.02 0.03 0.04 0.03 0.03 0.04 0.04 0.05 0.06 0.08 0.11 0.12
0.00 0.00 0.00 0.01 0.01 0.01 0.03 0.05 0.05 0.03 0.02 0.02 0.02 0.04 0.07 0.06 0.06 0.06 0.05 0.04 0.03 0.03 0.03 0.03 0.03 0.03 0.03 0.04 0.03 0.02 0.02 0.01 0.01 0.02 0.03 0.03 0.02 0.03 0.04 0.06 0.07 0.07 0.08 0.09
0.00 0.01 0.01 0.00 0.01 0.01 0.03 0.04 0.05 0.04 0.03 0.03 0.03 0.04 0.07 0.05 0.05 0.04 0.04 0.04 0.03 0.03 0.02 0.02 0.02 0.02 0.03 0.03 0.03 0.03 0.04 0.04 0.04 0.04 0.03 0.03 0.02 0.03 0.04 0.05 0.06 0.07 0.08 0.09
0.02 0.02 0.02 0.01 0.01 0.02 0.04 0.06 0.07 0.07 0.07 0.06 0.04 0.04 0.06 0.08 0.05 0.04 0.04 0.03 0.03 0.03 0.03 0.03 0.03 0.03 0.04 0.04 0.05 0.04 0.05 0.06 0.06 0.06 0.04 0.04 0.03 0.04 0.04 0.05 0.05 0.06 0.07 0.07
0.04 0.04 0.03 0.03 0.02 0.04 0.04 0.05 0.08 0.07 0.07 0.06 0.05 0.05 0.06 0.06 0.05 0.04 0.04 0.03 0.03 0.03 0.03 0.03 0.03 0.03 0.03 0.04 0.05 0.06 0.05 0.04 0.04 0.05 0.06 0.06 0.05 0.05 0.04 0.04 0.05 0.04 0.06 0.07
0.12 0.10 0.08 0.09 0.08 0.06 0.05 0.05 0.09 0.10 0.07 0.06 0.05 0.05 0.06 0.05 0.04 0.04 0.03 0.02 0.02 0.02 0.03 0.04 0.03 0.03 0.04 0.05 0.06 0.06 0.04 0.03 0.03 0.04 0.04 0.04 0.04 0.04 0.04 0.03 0.05 0.06 0.08 0.10
0.19 0.18 0.14 0.12 0.12 0.08 0.06 0.04 0.05 0.06 0.08 0.07 0.06 0.05 0.05 0.06 0.04 0.03 0.03 0.02 0.03 0.03 0.03 0.04 0.04 0.05 0.05 0.06 0.06 0.05 0.04 0.04 0.04 0.03 0.04 0.05 0.04 0.04 0.03 0.03 0.04 0.06 0.08 0.09
0.20 0.19 0.15 0.13 0.11 0.09 0.06 0.04 0.03 0.03 0.04 0.05 0.04 0.04 0.02 0.03 0.06 0.05 0.03 0.04 0.04 0.04 0.04 0.04 0.04 0.05 0.05 0.05 0.04 0.04 0.04 0.05 0.05 0.04 0.05 0.05 0.04 0.04 0.04 0.04 0.04 0.06 0.07 0.07
0.22 0.22 0.20 0.14 0.10 0.09 0.08 0.06 0.03 0.02 0.02 0.03 0.05 0.05 0.03 0.03 0.03 0.04 0.04 0.04 0.04 0.04 0.03 0.02 0.03 0.04 0.04 0.03 0.02 0.03 0.04 0.05 0.06 0.06 0.06 0.06 0.06 0.05 0.05 0.05 0.05 0.05 0.07 0.07
0.20 0.19 0.19 0.17 0.11 0.08 0.07 0.05 0.03 0.02 0.02 0.02 0.02 0.03 0.06 0.09 0.07 0.05 0.04 0.03 0.03 0.05 0.04 0.03 0.03 0.04 0.03 0.03 0.03 0.03 0.04 0.05 0.07 0.09 0.11 0.11 0.10 0.09 0.07 0.06 0.05 0.04 0.04 0.04
0.13 0.12 0.11 0.12 0.12 0.08 0.05 0.05 0.03 0.02 0.02 0.02 0.03 0.03 0.04 0.07 0.07 0.05 0.05 0.04 0.04 0.03 0.03 0.03 0.03 0.03 0.02 0.02 0.02 0.01 0.02 0.05 0.06 0.08 0.09 0.11 0.12 0.12 0.11 0.10 0.09 0.08 0.06 0.05
0.07 0.10 0.08 0.07 0.08 0.06 0.04 0.03 0.02 0.03 0.03 0.03 0.03 0.05 0.06 0.06 0.04 0.03 0.03 0.04 0.03 0.02 0.01 0.01 0.02 0.01 0.01 0.01 0.01 0.01 0.02 0.03 0.05 0.06 0.07 0.07 0.08 0.10 0.10 0.09 0.09 0.08 0.07 0.07
0.07 0.08 0.06 0.04 0.03 0.03 0.02 0.02 0.01 0.01 0.01 0.02 0.02 0.03 0.06 0.09 0.06 0.05 0.04 0.03 0.03 0.02 0.02 0.01 0.01 0.02 0.02 0.02 0.02 0.03 0.03 0.04 0.05 0.06 0.06 0.06 0.07 0.09 0.10 0.09 0.08 0.08 0.07 0.07
0.06 0.06 0.04 0.04 0.03 0.03 0.02 0.01 0.01 0.01 0.01 0.01 0.02 0.05 0.07 0.05 0.04 0.03 0.03 0.03 0.03 0.03 0.03 0.02 0.02 0.02 0.02 0.03 0.03 0.04 0.05 0.05 0.06 0.06 0.05 0.05 0.05 0.06 0.06 0.07 0.07 0.07 0.07 0.07
0.04 0.04 0.05 0.04 0.04 0.03 0.02 0.01 0.01 0.01 0.02 0.02 0.02 0.04 0.05 0.04 0.03 0.04 0.04 0.04 0.04 0.03 0.02 0.02 0.02 0.01 0.01 0.01 0.02 0.02 0.03 0.03 0.02 0.02 0.02 0.02 0.02 0.02 0.02 0.02 0.03 0.03 0.03 0.03
0.02 0.03 0.03 0.03 0.04 0.03 0.02 0.01 0.01 0.01 0.02 0.03 0.03 0.03 0.04 0.04 0.03 0.04 0.04 0.04 0.04 0.03 0.01 0.01 0.01 0.00 0.00 0.00 0.00 0.00 0.01 0.01 0.01 0.01 0.01 0.01 0.01 0.01 0.01 0.01 0.01 0.01 0.01 0.01
0.03 0.03 0.03 0.03 0.02 0.03 0.02 0.02 0.02 0.02 0.02 0.05 0.05 0.04 0.04 0.04 0.04 0.04 0.04 0.03 0.03 0.02 0.01 0.00 0.00 0.00 0.00 0.00 0.00 0.00 0.00 0.01 0.01 0.01 0.01 0.01 0.01 0.01 0.01 0.01 0.01 0.01 0.01 0.01
0.05 0.05 0.04 0.03 0.02 0.02 0.03 0.03 0.03 0.03 0.05 0.06 0.06 0.05 0.04 0.04 0.04 0.03 0.03 0.02 0.03 0.03 0.01 0.01 0.01 0.00 0.00 0.00 0.00 0.00 0.00 0.00 0.01 0.01 0.02 0.02 0.02 0.01 0.01 0.01 0.00 0.00 0.00 0.00
0.06 0.06 0.06 0.04 0.03 0.03 0.04 0.05 0.05 0.05 0.05 0.05 0.05 0.04 0.04 0.04 0.03 0.03 0.02 0.02 0.01 0.01 0.01 0.01 0.01 0.01 0.01 0.00 0.00 0.01 0.01 0.00 0.01 0.01 0.02 0.02 0.01 0.01 0.01 0.01 0.01 0.00 0.00 0.00
0.06 0.06 0.05 0.05 0.04 0.04 0.04 0.05 0.05 0.05 0.05 0.04 0.03 0.03 0.03 0.03 0.02 0.02 0.01 0.01 0.01 0.01 0.01 0.01 0.01 0.01 0.00 0.00 0.00 0.00 0.01 0.01 0.01 0.01 0.01 0.01 0.01 0.01 0.01 0.01 0.01 0.01 0.00 0.00
0.05 0.06 0.05 0.05 0.05 0.05 0.05 0.04 0.05 0.06 0.05 0.03 0.03 0.02 0.02 0.02 0.01 0.01 0.01 0.01 0.01 0.01 0.01 0.00 0.00 0.01 0.01 0.01 0.01 0.01 0.01 0.01 0.01 0.01 0.01 0.01 0.01 0.01 0.01 0.01 0.01 0.01 0.01 0.01
0.05 0.06 0.05 0.04 0.04 0.03 0.03 0.03 0.04 0.06 0.05 0.03 0.02 0.02 0.01 0.01 0.01 0.01 0.01 0.01 0.01 0.01 0.01 0.01 0.01 0.01 0.01 0.01 0.02 0.02 0.02 0.02 0.01 0.01 0.01 0.01 0.01 0.01 0.00 0.00 0.00 0.00 0.00 0.00
MSLP
1008.89 1009.17 1009.53 1009.95 1010.37 1010.73 1010.98 1011.07 1011.00 1010.77 1010.43 1010.04 1009.66 1009.37 1009.20 1009.20 1009.36 1009.65 1010.04 1010.48 1010.92 1011.32 1011.68 1011.99 1012.27 1012.53 1012.79 1013.06 1013.32 1013.56 1013.74 1013.82 1013.76 1013.55 1013.18 1012.65 1012.00 1011.29 1010.56 1009.88 1009.31 1008.90 1008.69 1008.72
1009.04 1009.22 1009.42 1009.61 1009.76 1009.86 1009.87 1009.80 1009.66 1009.46 1009.25 1009.07 1008.95 1008.93 1009.01 1009.21 1009.49 1009.84 1010.22 1010.60 1010.97 1011.31 1011.62 1011.93 1012.25 1012.59 1012.95 1013.32 1013.69 1014.00 1014.22 1014.31 1014.23 1013.97 1013.52 1012.91 1012.18 1011.39 1010.59 1009.86 1009.24 1008.80 1008.58 1008.60
1009.22 1009.30 1009.33 1009.32 1009.24 1009.09 1008.90 1008.69 1008.48 1008.30 1008.20 1008.18 1008.27 1008.46 1008.74 1009.09 1009.47 1009.85 1010.21 1010.54 1010.85 1011.13 1011.43 1011.75 1012.12 1012.54 1013.02 1013.51 1013.99 1014.39 1014.68 1014.81 1014.74 1014.47 1014.00 1013.36 1012.61 1011.80 1011.00 1010.27 1009.66 1009.24 1009.02 1009.05
1009.39 1009.35 1009.23 1009.03 1008.74 1008.41 1008.05 1007.72 1007.45 1007.29 1007.26 1007.36 1007.61 1007.96 1008.38 1008.83 1009.28 1009.68 1010.03 1010.33 1010.60 1010.86 1011.15 1011.50 1011.93 1012.45 1013.03 1013.64 1014.22 1014.72 1015.08 1015.27 1015.24 1015.00 1014.57 1013.97 1013.27 1012.52 1011.78 1011.12 1010.58 1010.21 1010.04 1010.08
1009.49 1009.32 1009.05 1008.68 1008.23 1007.74 1007.26 1006.84 1006.54 1006.39 1006.41 1006.61 1006.96 1007.42 1007.94 1008.47 1008.97 1009.40 1009.75 1010.04 1010.30 1010.56 1010.88 1011.27 1011.77 1012.36 1013.03 1013.73 1014.40 1014.98 1015.41 1015.66 1015.70 1015.54 1015.18 1014.68 1014.09 1013.47 1012.86 1012.32 1011.90 1011.62 1011.51 1011.59
1009.49 1009.16 1008.74 1008.23 1007.65 1007.06 1006.50 1006.04 1005.72 1005.59 1005.66 1005.92 1006.35 1006.90 1007.49 1008.08 1008.62 1009.08 1009.45 1009.76 1010.04 1010.33 1010.68 1011.13 1011.68 1012.33 1013.06 1013.82 1014.54 1015.18 1015.67 1015.98 1016.10 1016.02 1015.79 1015.43 1015.00 1014.55 1014.12 1013.75 1013.48 1013.33 1013.31 1013.42
1009.36 1008.87 1008.31 1007.69 1007.02 1006.37 1005.78 1005.31 1005.01 1004.92 1005.04 1005.36 1005.86 1006.46 1007.10 1007.74 1008.32 1008.81 1009.23 1009.58 1009.89 1010.23 1010.62 1011.11 1011.70 1012.38 1013.14 1013.91 1014.66 1015.31 1015.84 1016.20 1016.40 1016.44 1016.34 1016.15 1015.91 1015.66 1015.44 1015.27 1015.18 1015.16 1015.23 1015.39
1009.13 1008.48 1007.80 1007.09 1006.38 1005.72 1005.15 1004.72 1004.47 1004.44 1004.62 1005.00 1005.55 1006.19 1006.87 1007.55 1008.16 1008.70 1009.15 1009.54 1009.91 1010.29 1010.72 1011.23 1011.83 1012.52 1013.26 1014.02 1014.75 1015.40 1015.94 1016.35 1016.62 1016.77 1016.82 1016.81 1016.77 1016.74 1016.73 1016.76 1016.83 1016.95 1017.12 1017.33
1008.82 1008.05 1007.28 1006.53 1005.83 1005.20 1004.69 1004.34 1004.18 1004.23 1004.48 1004.92 1005.50 1006.18 1006.88 1007.57 1008.21 1008.78 1009.26 1009.69 1010.09 1010.50 1010.95 1011.47 1012.06 1012.71 1013.42 1014.13 1014.82 1015.45 1015.99 1016.43 1016.77 1017.03 1017.23 1017.39 1017.54 1017.71 1017.90 1018.11 1018.34 1018.59 1018.84 1019.08
1008.50 1007.65 1006.84 1006.10 1005.44 1004.89 1004.49 1004.25 1004.20 1004.35 1004.67 1005.16 1005.77 1006.46 1007.17 1007.86 1008.50 1009.07 1009.57 1010.01 1010.43 1010.84 1011.29 1011.79 1012.35 1012.96 1013.60 1014.25 1014.89 1015.48 1016.02 1016.49 1016.89 1017.25 1017.58 1017.89 1018.22 1018.56 1018.91 1019.28 1019.64 1019.98 1020.29 1020.57
1008.22 1007.34 1006.54 1005.85 1005.28 1004.86 1004.59 1004.49 1004.56 1004.80 1005.20 1005.73 1006.35 1007.03 1007.72 1008.38 1008.99 1009.54 1010.03 1010.46 1010.87 1011.28 1011.70 1012.17 1012.67 1013.22 1013.80 1014.39 1014.97 1015.53 1016.06 1016.56 1017.02 1017.47 1017.91 1018.35 1018.81 1019.29 1019.77 1020.24 1020.69 1021.09 1021.45 1021.74
1008.01 1007.15 1006.42 1005.83 1005.38 1005.10 1004.98 1005.01 1005.21 1005.54 1006.00 1006.55 1007.18 1007.83 1008.47 1009.08 1009.65 1010.15 1010.60 1011.00 1011.38 1011.76 1012.15 1012.56 1013.02 1013.50 1014.02 1014.55 1015.09 1015.63 1016.16 1016.68 1017.20 1017.72 1018.25 1018.79 1019.35 1019.92 1020.48 1021.01 1021.50 1021.94 1022.31 1022.60
1007.87 1007.09 1006.45 1005.98 1005.68 1005.54 1005.56 1005.73 1006.04 1006.45 1006.96 1007.52 1008.12 1008.73 1009.32 1009.87 1010.37 1010.81 1011.21 1011.58 1011.92 1012.25 1012.60 1012.98 1013.38 1013.82 1014.28 1014.77 1015.28 1015.80 1016.33 1016.88 1017.44 1018.02 1018.62 1019.23 1019.85 1020.47 1021.06 1021.62 1022.12 1022.55 1022.91 1023.19
1007.76 1007.09 1006.58 1006.24 1006.08 1006.08 1006.23 1006.52 1006.91 1007.38 1007.92 1008.49 1009.06 1009.62 1010.15 1010.64 1011.08 1011.47 1011.83 1012.15 1012.45 1012.76 1013.08 1013.41 1013.78 1014.18 1014.60 1015.06 1015.55 1016.06 1016.60 1017.17 1017.76 1018.37 1019.01 1019.66 1020.30 1020.93 1021.53 1022.08 1022.56 1022.97 1023.30 1023.57
1007.66 1007.11 1006.72 1006.50 1006.46 1006.58 1006.84 1007.21 1007.68 1008.20 1008.75 1009.32 1009.88 1010.40 1010.89 1011.33 1011.73 1012.08 1012.41 1012.70 1012.99 1013.28 1013.57 1013.89 1014.23 1014.60 1015.00 1015.44 1015.91 1016.41 1016.95 1017.52 1018.13 1018.76 1019.41 1020.06 1020.70 1021.32 1021.90 1022.41 1022.86 1023.24 1023.54 1023.79
1007.53 1007.09 1006.80 1006.68 1006.74 1006.94 1007.28 1007.72 1008.23 1008.79 1009.36 1009.93 1010.49 1011.00 1011.47 1011.90 1012.28 1012.63 1012.95 1013.25 1013.53 1013.82 1014.11 1014.42 1014.74 1015.10 1015.47 1015.89 1016.34 1016.83 1017.35 1017.92 1018.51 1019.13 1019.77 1020.41 1021.03 1021.62 1022.16 1022.64 1023.05 1023.39 1023.67 1023.90
1007.36 1006.99 1006.78 1006.73 1006.85 1007.11 1007.49 1007.97 1008.52 1009.11 1009.71 1010.30 1010.87 1011.40 1011.89 1012.33 1012.74 1013.11 1013.46 1013.78 1014.09 1014.39 1014.69 1015.00 1015.32 1015.65 1016.01 1016.39 1016.81 1017.27 1017.77 1018.30 1018.87 1019.47 1020.07 1020.68 1021.27 1021.82 1022.33 1022.77 1023.15 1023.47 1023.73 1023.95
1007.16 1006.84 1006.66 1006.65 1006.79 1007.08 1007.49 1007.99 1008.57 1009.19 1009.82 1010.45 1011.05 1011.63 1012.17 1012.67 1013.13 1013.55 1013.94 1014.31 1014.65 1014.98 1015.30 1015.61 1015.92 1016.23 1016.56 1016.91 1017.29 1017.71 1018.16 1018.65 1019.18 1019.73 1020.30 1020.86 1021.41 1021.93 1022.41 1022.83 1023.19 1023.50 1023.76 1023.99
1006.98 1006.67 1006.51 1006.49 1006.64 1006.93 1007.34 1007.86 1008.46 1009.10 1009.78 1010.45 1011.12 1011.76 1012.37 1012.94 1013.47 1013.96 1014.41 1014.83 1015.22 1015.57 1015.90 1016.21 1016.50 1016.79 1017.09 1017.40 1017.73 1018.09 1018.49 1018.93 1019.41 1019.91 1020.43 1020.96 1021.48 1021.97 1022.43 1022.84 1023.20 1023.51 1023.79 1024.03
1006.91 1006.59 1006.40 1006.37 1006.50 1006.77 1007.18 1007.71 1008.32 1008.99 1009.71 1010.44 1011.17 1011.87 1012.55 1013.20 1013.80 1014.35 1014.86 1015.32 1015.74 1016.11 1016.45 1016.75 1017.03 1017.29 1017.54 1017.81 1018.09 1018.40 1018.75 1019.14 1019.56 1020.02 1020.50 1020.99 1021.48 1021.96 1022.41 1022.82 1023.19 1023.52 1023.81 1024.07
1007.02 1006.67 1006.46 1006.40 1006.50 1006.75 1007.15 1007.67 1008.29 1008.99 1009.73 1010.51 1011.28 1012.05 1012.78 1013.48 1014.13 1014.73 1015.28 1015.77 1016.20 1016.57 1016.90 1017.19 1017.44 1017.67 1017.89 1018.11 1018.36 1018.62 1018.93 1019.27 1019.65 1020.07 1020.52 1020.99 1021.46 1021.92 1022.37 1022.79 1023.17 1023.51 1023.82 1024.11
1007.37 1007.01 1006.77 1006.68 1006.76 1006.99 1007.37 1007.88 1008.49 1009.19 1009.95 1010.74 1011.55 1012.34 1013.10 1013.82 1014.49 1015.10 1015.65 1016.14 1016.56 1016.92 1017.23 1017.49 1017.72 1017.92 1018.11 1018.31 1018.52 1018.76 1019.03 1019.35 1019.70 1020.09 1020.52 1020.96 1021.42 1021.87 1022.31 1022.73 1023.12 1023.48 1023.81 1024.10
1008.00 1007.63 1007.38 1007.28 1007.34 1007.55 1007.90 1008.39 1008.99 1009.67 1010.42 1011.20 1011.99 1012.77 1013.52 1014.23 1014.88 1015.46 1015.98 1016.44 1016.82 1017.15 1017.43 1017.66 1017.86 1018.04 1018.22 1018.40 1018.60 1018.82 1019.08 1019.38 1019.72 1020.09 1020.50 1020.92 1021.36 1021.80 1022.23 1022.64 1023.03 1023.39 1023.71 1024.01
1008.89 1008.54 1008.30 1008.20 1008.25 1008.44 1008.77 1009.23 1009.79 1010.44 1011.15 1011.88 1012.63 1013.36 1014.05 1014.70 1015.29 1015.81 1016.27 1016.67 1017.00 1017.28 1017.52 1017.72 1017.90 1018.06 1018.23 1018.41 1018.61 1018.83 1019.09 1019.38 1019.71 1020.07 1020.46 1020.86 1021.28 1021.69 1022.10 1022.49 1022.86 1023.21 1023.52 1023.81
1009.98 1009.68 1009.47 1009.39 1009.44 1009.62 1009.92 1010.34 1010.86 1011.45 1012.08 1012.75 1013.41 1014.06 1014.66 1015.22 1015.72 1016.16 1016.54 1016.85 1017.12 1017.35 1017.54 1017.71 1017.87 1018.03 1018.19 1018.38 1018.58 1018.82 1019.08 1019.37 1019.69 1020.03 1020.39 1020.77 1021.15 1021.53 1021.90 1022.25 1022.59 1022.91 1023.20 1023.47
1011.19 1010.95 1010.80 1010.75 1010.81 1010.98 1011.26 1011.63 1012.09 1012.60 1013.16 1013.73 1014.29 1014.83 1015.33 1015.78 1016.17 1016.51 1016.79 1017.03 1017.23 1017.39 1017.54 1017.68 1017.83 1017.98 1018.15 1018.34 1018.55 1018.80 1019.06 1019.34 1019.65 1019.97 1020.29 1020.63 1020.96 1021.29 1021.61 1021.92 1022.22 1022.50 1022.76 1023.01
1012.40 1012.24 1012.15 1012.13 1012.21 1012.37 1012.63 1012.96 1013.35 1013.79 1014.25 1014.72 1015.18 1015.61 1016.00 1016.34 1016.62 1016.86 1017.06 1017.21 1017.34 1017.46 1017.57 1017.68 1017.81 1017.96 1018.13 1018.32 1018.54 1018.78 1019.04 1019.31 1019.59 1019.87 1020.16 1020.44 1020.71 1020.98 1021.25 1021.51 1021.76 1022.00 1022.23 1022.45
Thickness
5758 5770 5777 5775 5778 5778 5765 5756 5747 5752 5758 5768 5775 5780 5780 5779 5776 5773 5769 5766 5763 5760 5758 5757 5756 5755 5755 5752 5751 5748 5745 5741 5739 5738 5736 5733 5730 5728 5726 5724 5723 5721 5719 5717
5755 5769 5772 5770 5777 5779 5777 5774 5766 5764 5761 5778 5782 5781 5779 5777 5775 5770 5768 5765 5762 5758 5756 5754 5754 5753 5752 5749 5747 5745 5741 5738 5737 5735 5732 5729 5726 5724 5721 5719 5717 5716 5714 5712
5730 5751 5756 5747 5768 5774 5775 5779 5773 5760 5767 5776 5773 5775 5775 5775 5774 5770 5767 5764 5760 5756 5753 5752 5751 5751 5748 5745 5743 5740 5738 5735 5733 5731 5728 5725 5723 5720 5717 5714 5712 5710 5708 5706
5718 5732 5719 5744 5778 5782 5776 5777 5781 5780 5779 5779 5778 5776 5776 5777 5773 5769 5767 5763 5757 5753 5750 5749 5749 5747 5744 5741 5738 5735 5732 5730 5728 5726 5723 5720 5717 5715 5712 5710 5707 5705 5702 5700
5702 5706 5719 5749 5770 5775 5766 5760 5775 5774 5773 5772 5773 5768 5763 5770 5771 5768 5764 5761 5756 5752 5749 5746 5744 5742 5739 5734 5732 5729 5726 5724 5722 5720 5717 5714 5711 5709 5706 5704 5701 5697 5694 5691
5698 5700 5701 5734 5767 5780 5766 5742 5767 5770 5768 5767 5766 5748 5749 5762 5764 5762 5758 5755 5751 5748 5745 5741 5739 5737 5732 5728 5725 5722 5720 5718 5716 5714 5711 5707 5704 5702 5699 5696 5692 5689 5685 5682
5693 5695 5708 5742 5763 5767 5734 5734 5761 5765 5764 5763 5758 5756 5756 5757 5756 5754 5752 5748 5746 5742 5737 5734 5733 5730 5725 5721 5718 5716 5714 5711 5708 5706 5703 5700 5697 5694 5691 5688 5683 5679 5675 5670
5684 5686 5698 5740 5749 5741 5738 5752 5756 5758 5758 5755 5752 5751 5749 5748 5746 5744 5742 5739 5737 5733 5728 5726 5725 5722 5717 5713 5711 5709 5706 5702 5699 5696 5694 5691 5688 5684 5681 5678 5673 5668 5664 5659
5683 5689 5712 5730 5737 5744 5748 5747 5748 5748 5749 5748 5743 5739 5739 5737 5735 5734 5732 5730 5727 5723 5719 5717 5715 5713 5708 5704 5703 5700 5697 5693 5689 5686 5683 5681 5678 5675 5671 5667 5664 5658 5654 5650
5679 5691 5705 5719 5729 5735 5740 5742 5743 5743 5742 5739 5734 5730 5729 5726 5723 5722 5720 5719 5716 5713 5709 5706 5704 5703 5700 5696 5694 5691 5686 5682 5679 5676 5673 5670 5668 5665 5661 5657 5653 5649 5645 5641
5670 5681 5693 5703 5711 5718 5725 5729 5730 5731 5730 5727 5725 5722 5720 5716 5714 5711 5709 5708 5706 5702 5699 5696 5694 5691 5689 5687 5684 5680 5676 5672 5668 5665 5661 5657 5654 5650 5648 5646 5644 5641 5637 5633
5658 5671 5677 5685 5699 5708 5711 5713 5715 5715 5713 5713 5713 5709 5708 5705 5703 5700 5698 5696 5693 5690 5688 5685 5683 5680 5678 5677 5675 5671 5666 5661 5658 5654 5651 5647 5642 5636 5632 5632 5630 5629 5627 5623
5662 5671 5676 5682 5690 5697 5699 5701 5703 5702 5701 5700 5699 5698 5695 5691 5688 5687 5686 5684 5681 5679 5677 5674 5672 5669 5667 5666 5664 5661 5657 5652 5648 5645 5641 5637 5633 5629 5622 5617 5615 5614 5612 5610
5663 5666 5667 5673 5677 5684 5686 5689 5690 5689 5688 5688 5686 5684 5682 5678 5676 5675 5673 5671 5669 5667 5665 5663 5661 5658 5656 5655 5653 5650 5646 5643 5639 5635 5632 5627 5623 5619 5615 5611 5605 5599 5596 5595
5657 5661 5662 5665 5668 5671 5673 5675 5673 5671 5671 5672 5672 5670 5669 5666 5664 5662 5660 5658 5657 5655 5653 5651 5649 5646 5645 5644 5642 5639 5636 5632 5629 5625 5621 5617 5613 5609 5604 5600 5595 5589 5585 5581
5648 5653 5655 5656 5658 5659 5660 5660 5659 5659 5659 5659 5657 5656 5656 5654 5652 5650 5648 5647 5645 5642 5640 5639 5637 5635 5634 5633 5631 5628 5625 5623 5619 5615 5611 5607 5603 5599 5594 5590 5585 5580 5576 5572
5640 5640 5643 5646 5649 5650 5650 5650 5650 5649 5648 5647 5646 5645 5643 5641 5639 5637 5635 5634 5632 5630 5628 5627 5625 5625 5624 5622 5621 5618 5615 5612 5610 5605 5601 5598 5594 5590 5585 5581 5576 5571 5567 5564
5638 5640 5641 5643 5643 5642 5641 5641 5640 5639 5637 5637 5636 5634 5632 5630 5628 5625 5623 5621 5620 5617 5616 5615 5615 5614 5613 5611 5610 5607 5604 5601 5599 5596 5593 5589 5585 5581 5576 5572 5567 5563 5557 5554
5631 5634 5636 5636 5636 5635 5633 5631 5630 5629 5628 5627 5624 5622 5621 5619 5617 5615 5613 5611 5609 5607 5605 5605 5604 5603 5602 5601 5600 5597 5595 5592 5589 5586 5583 5579 5575 5571 5567 5562 5558 5554 5550 5545
5622 5624 5625 5626 5626 5625 5623 5622 5621 5619 5617 5616 5614 5611 5609 5607 5605 5604 5602 5599 5598 5597 5596 5595 5594 5593 5592 5591 5591 5588 5586 5584 5580 5577 5573 5570 5566 5562 5558 5554 5550 5546 5542 5538
5611 5613 5613 5614 5614 5614 5614 5613 5611 5609 5607 5606 5604 5602 5599 5597 5595 5593 5591 5589 5588 5588 5587 5586 5585 5584 5583 5582 5581 5579 5577 5575 5572 5568 5566 5562 5558 5555 5551 5547 5543 5539 5535 5531
5602 5603 5603 5604 5604 5603 5603 5603 5603 5601 5599 5597 5595 5593 5591 5588 5586 5584 5582 5582 5580 5579 5579 5578 5578 5577 5576 5575 5574 5572 5569 5567 5564 5561 5558 5555 5552 5548 5544 5540 5536 5533 5529 5524
5593 5594 5594 5595 5595 5594 5593 5593 5593 5592 5590 5588 5586 5584 5583 5581 5579 5578 5575 5574 5574 5573 5572 5571 5571 5571 5570 5569 5567 5565 5563 5560 5557 5554 5552 5549 5546 5542 5538 5534 5531 5527 5523 5519
5584 5585 5586 5586 5587 5586 5584 5582 5582 5582 5581 5579 5578 5577 5576 5574 5572 5571 5571 5569 5568 5567 5566 5565 5565 5564 5563 5562 5560 5558 5556 5553 5551 5549 5546 5543 5540 5536 5533 5529 5525 5521 5518 5514
5577 5577 5577 5578 5577 5576 5575 5575 5574 5573 5573 5571 5570 5570 5570 5570 5568 5566 5565 5564 5562 5561 5560 5559 5559 5558 5557 5555 5554 5552 5550 5548 5546 5543 5540 5537 5533 5530 5527 5524 5520 5516 5513 5509
5569 5569 5569 5570 5570 5570 5569 5569 5568 5567 5566 5565 5564 5564 5564 5564 5563 5562 5560 5559 5558 5556 5555 5554 5553 5553 5551 5550 5548 5546 5544 5542 5540 5537 5534 5531 5528 5525 5521 5518 5516 5512 5508 5505
5564 5564 5564 5564 5564 5564 5565 5564 5564 5562 5562 5561 5560 5559 5559 5558 5557 5556 5555 5553 5552 5551 5550 5549 5548 5547 5546 5544 5542 5540 5538 5536 5534 5531 5529 5525 5522 5519 5516 5513 5510 5507 5504 5500